| time (UTC) | temp F | wind direction | speed MPH | gust MPH | rain 1hr in | rain 24hr in | rain mn in | humidity % | barometer mb |
| 20260508064619 | 44 | 119 | 1.0 | 2.0 | 0.00 | 0.00 | 0.00 | 94 | 1015.7 |
| 20260508064117 | 44 | 139 | 2.0 | 2.0 | 0.00 | 0.00 | 0.00 | 94 | 1015.9 |
| 20260508063614 | 43 | 118 | 2.0 | 2.0 | 0.00 | 0.00 | 0.00 | 94 | 1015.8 |
| 20260508063112 | 43 | 122 | 0.0 | 2.0 | 0.00 | 0.00 | 0.00 | 94 | 1016.0 |
| 20260508062609 | 43 | 129 | 1.0 | 2.0 | 0.00 | 0.00 | 0.00 | 94 | 1016.0 |
| 20260508062106 | 43 | 88 | 0.0 | 2.0 | 0.00 | 0.00 | 0.00 | 93 | 1016.1 |
| 20260508061604 | 44 | 88 | 2.0 | 2.0 | 0.00 | 0.00 | 0.00 | 93 | 1016.4 |
| 20260508061101 | 44 | 112 | 1.0 | 2.0 | 0.00 | 0.00 | 0.00 | 93 | 1016.2 |
| 20260508060557 | 44 | 99 | 1.0 | 2.0 | 0.00 | 0.00 | 0.00 | 93 | 1016.4 |
| 20260508060055 | 44 | 123 | 1.0 | 2.0 | 0.00 | 0.00 | 0.00 | 93 | 1016.4 |
| 20260508055550 | 44 | 120 | 0.0 | 2.0 | 0.00 | 0.00 | 0.00 | 93 | 1016.5 |
| 20260508055047 | 44 | 109 | 0.0 | 2.0 | 0.00 | 0.00 | 0.00 | 92 | 1016.6 |
| 20260508054543 | 44 | 44 | 0.0 | 2.0 | 0.00 | 0.00 | 0.00 | 92 | 1016.5 |
| 20260508054041 | 44 | 100 | 1.0 | 2.0 | 0.00 | 0.00 | 0.00 | 92 | 1016.5 |
| 20260508053538 | 44 | 93 | 1.0 | 2.0 | 0.00 | 0.00 | 0.00 | 91 | 1016.6 |
| 20260508053036 | 45 | 99 | 2.0 | 2.0 | 0.00 | 0.00 | 0.00 | 91 | 1016.5 |
| 20260508052533 | 45 | 96 | 1.0 | 2.0 | 0.00 | 0.00 | 0.00 | 91 | 1016.7 |
| 20260508052030 | 45 | 118 | 0.0 | 2.0 | 0.00 | 0.00 | 0.00 | 90 | 1016.6 |
| 20260508051526 | 45 | 147 | 0.0 | 1.0 | 0.00 | 0.00 | 0.00 | 90 | 1016.7 |
| 20260508051021 | 45 | 141 | 0.0 | 1.0 | 0.00 | 0.00 | 0.00 | 89 | 1016.7 |
| 20260508050518 | 45 | 131 | 0.0 | 1.0 | 0.00 | 0.00 | 0.00 | 90 | 1016.7 |
| 20260508050015 | 45 | 89 | 0.0 | 1.0 | 0.00 | 0.00 | 0.00 | 90 | 1016.7 |
| 20260508045511 | 45 | 130 | 0.0 | 1.0 | 0.00 | 0.00 | 0.00 | 89 | 1016.6 |
| 20260508045009 | 45 | 77 | 0.0 | 1.0 | 0.00 | 0.00 | 0.00 | 89 | 1016.8 |
| 20260508044506 | 45 | 119 | 0.0 | 0.0 | 0.00 | 0.00 | 0.00 | 88 | 1016.9 |
| 20260508044002 | 46 | 35 | 1.0 | 1.0 | 0.00 | 0.00 | 0.00 | 89 | 1016.9 |
| 20260508043459 | 46 | 224 | 0.0 | 0.0 | 0.00 | 0.00 | 0.00 | 88 | 1017.1 |
| 20260508042955 | 46 | 105 | 0.0 | 0.0 | 0.00 | 0.00 | 0.00 | 87 | 1016.8 |
| 20260508042453 | 46 | 26 | 1.0 | 1.0 | 0.00 | 0.00 | 0.00 | 88 | 1017.1 |
| 20260508041950 | 47 | 339 | 0.0 | 0.0 | 0.00 | 0.00 | 0.00 | 87 | 1017.0 |
| 20260508041446 | 47 | 32 | 0.0 | 2.0 | 0.00 | 0.00 | 0.00 | 87 | 1017.0 |
| 20260508040943 | 47 | 16 | 1.0 | 2.0 | 0.00 | 0.00 | 0.00 | 87 | 1016.9 |
| 20260508040440 | 47 | 83 | 0.0 | 1.0 | 0.00 | 0.00 | 0.00 | 86 | 1016.8 |
| 20260508035938 | 48 | 23 | 0.0 | 1.0 | 0.00 | 0.00 | 0.00 | 85 | 1017.1 |
| 20260508035435 | 48 | 103 | 0.0 | 0.0 | 0.00 | 0.00 | 0.00 | 81 | 1017.0 |
| 20260508034931 | 48 | 72 | 0.0 | 1.0 | 0.00 | 0.00 | 0.00 | 80 | 1017.1 |
| 20260508034429 | 49 | 103 | 0.0 | 1.0 | 0.00 | 0.00 | 0.00 | 77 | 1016.9 |
| 20260508033925 | 49 | 128 | 1.0 | 2.0 | 0.00 | 0.00 | 0.00 | 78 | 1016.9 |
| 20260508033424 | 49 | 107 | 1.0 | 2.0 | 0.00 | 0.00 | 0.00 | 79 | 1017.0 |
| 20260508032921 | 49 | 57 | 1.0 | 1.0 | 0.00 | 0.00 | 0.00 | 81 | 1017.1 |
| 20260508032418 | 49 | 19 | 0.0 | 0.0 | 0.00 | 0.00 | 0.00 | 81 | 1017.0 |
| 20260508031915 | 50 | 147 | 0.0 | 1.0 | 0.00 | 0.00 | 0.00 | 80 | 1017.1 |
| 20260508031412 | 50 | 135 | 0.0 | 1.0 | 0.00 | 0.00 | 0.00 | 76 | 1016.9 |
| 20260508030908 | 50 | 113 | 0.0 | 1.0 | 0.00 | 0.00 | 0.00 | 76 | 1016.7 |
| 20260508030405 | 50 | 97 | 0.0 | 1.0 | 0.00 | 0.00 | 0.00 | 76 | 1016.7 |
| 20260508025902 | 50 | 44 | 0.0 | 1.0 | 0.00 | 0.00 | 0.00 | 79 | 1016.6 |
| 20260508025358 | 50 | 124 | 0.0 | 0.0 | 0.00 | 0.00 | 0.00 | 74 | 1016.5 |
| 20260508024855 | 51 | 72 | 0.0 | 1.0 | 0.00 | 0.00 | 0.00 | 74 | 1016.5 |
| 20260508024352 | 51 | 168 | 0.0 | 1.0 | 0.00 | 0.00 | 0.00 | 72 | 1016.6 |
| 20260508023849 | 52 | 136 | 0.0 | 1.0 | 0.00 | 0.00 | 0.00 | 71 | 1016.4 |
| 20260508023346 | 52 | 141 | 0.0 | 1.0 | 0.00 | 0.00 | 0.00 | 71 | 1016.4 |
| 20260508022843 | 53 | 145 | 0.0 | 1.0 | 0.00 | 0.00 | 0.00 | 67 | 1016.2 |
| 20260508022338 | 53 | 55 | 0.0 | 0.0 | 0.00 | 0.00 | 0.00 | 68 | 1016.2 |
| 20260508021836 | 53 | 135 | 0.0 | 1.0 | 0.00 | 0.00 | 0.00 | 65 | 1016.1 |
| 20260508021332 | 54 | 101 | 0.0 | 1.0 | 0.00 | 0.00 | 0.00 | 64 | 1016.0 |
| 20260508020827 | 54 | 136 | 0.0 | 2.0 | 0.00 | 0.00 | 0.00 | 63 | 1015.9 |
| 20260508020326 | 55 | 157 | 0.0 | 1.0 | 0.00 | 0.00 | 0.00 | 60 | 1015.9 |
| 20260508015822 | 55 | 141 | 0.0 | 1.0 | 0.00 | 0.00 | 0.00 | 58 | 1015.8 |
| 20260508015320 | 55 | 121 | 0.0 | 1.0 | 0.00 | 0.00 | 0.00 | 56 | 1015.8 |
| 20260508014817 | 55 | 130 | 1.0 | 2.0 | 0.00 | 0.00 | 0.00 | 57 | 1015.8 |
| 20260508014314 | 55 | 126 | 0.0 | 2.0 | 0.00 | 0.00 | 0.00 | 59 | 1015.9 |
| 20260508013809 | 55 | 152 | 1.0 | 1.0 | 0.00 | 0.00 | 0.00 | 59 | 1015.8 |
| 20260508013306 | 56 | 55 | 0.0 | 0.0 | 0.00 | 0.00 | 0.00 | 57 | 1015.6 |
| 20260508012803 | 56 | 89 | 0.0 | 1.0 | 0.00 | 0.00 | 0.00 | 57 | 1015.8 |
| 20260508012300 | 57 | 123 | 0.0 | 1.0 | 0.00 | 0.00 | 0.00 | 57 | 1015.5 |
| 20260508011758 | 57 | 113 | 0.0 | 1.0 | 0.00 | 0.00 | 0.00 | 58 | 1015.5 |
| 20260508011255 | 57 | 336 | 0.0 | 1.0 | 0.00 | 0.00 | 0.00 | 58 | 1015.4 |
| 20260508010752 | 57 | 76 | 0.0 | 1.0 | 0.00 | 0.00 | 0.00 | 56 | 1015.5 |
| 20260508010250 | 58 | 35 | 0.0 | 1.0 | 0.00 | 0.00 | 0.00 | 58 | 1015.3 |
| 20260508005747 | 58 | 103 | 0.0 | 1.0 | 0.00 | 0.00 | 0.00 | 58 | 1015.4 |
| 20260508005244 | 59 | 142 | 0.0 | 0.0 | 0.00 | 0.00 | 0.00 | 56 | 1015.3 |
| 20260508004739 | 60 | 13 | 0.0 | 1.0 | 0.00 | 0.00 | 0.00 | 51 | 1015.3 |
| 20260508004236 | 60 | 110 | 0.0 | 0.0 | 0.00 | 0.00 | 0.00 | 55 | 1015.2 |
| 20260508003732 | 61 | 352 | 0.0 | 0.0 | 0.00 | 0.00 | 0.00 | 55 | 1015.4 |
| 20260508003230 | 62 | 132 | 1.0 | 2.0 | 0.00 | 0.00 | 0.00 | 53 | 1015.3 |
| 20260508002726 | 62 | 210 | 2.0 | 3.0 | 0.00 | 0.00 | 0.00 | 46 | 1015.3 |
| 20260508002224 | 62 | 180 | 0.0 | 3.0 | 0.00 | 0.00 | 0.00 | 47 | 1015.2 |
| 20260508001719 | 63 | 233 | 3.0 | 4.0 | 0.00 | 0.00 | 0.00 | 47 | 1015.4 |
| 20260508001215 | 63 | 259 | 4.0 | 6.0 | 0.00 | 0.00 | 0.00 | 43 | 1015.4 |
| 20260508000711 | 64 | 245 | 0.0 | 4.0 | 0.00 | 0.00 | 0.00 | 44 | 1015.2 |
| 20260508000209 | 64 | 218 | 2.0 | 4.0 | 0.00 | 0.00 | 0.00 | 42 | 1015.1 |
| 20260507235705 | 64 | 192 | 1.0 | 5.0 | 0.00 | 0.00 | 0.00 | 44 | 1015.4 |
| 20260507235202 | 64 | 243 | 6.0 | 7.0 | 0.00 | 0.00 | 0.00 | 42 | 1015.2 |
| 20260507234659 | 64 | 268 | 2.0 | 6.0 | 0.00 | 0.00 | 0.00 | 43 | 1015.2 |
| 20260507234156 | 64 | 240 | 4.0 | 10.0 | 0.00 | 0.00 | 0.00 | 42 | 1015.3 |
| 20260507233653 | 65 | 210 | 3.0 | 10.0 | 0.00 | 0.00 | 0.00 | 42 | 1015.3 |
| 20260507233151 | 65 | 101 | 3.0 | 3.0 | 0.00 | 0.00 | 0.00 | 41 | 1015.2 |
| 20260507232647 | 65 | 237 | 3.0 | 6.0 | 0.00 | 0.00 | 0.00 | 40 | 1015.4 |
| 20260507232145 | 65 | 133 | 2.0 | 5.0 | 0.00 | 0.00 | 0.00 | 41 | 1015.3 |
| 20260507231641 | 65 | 142 | 2.0 | 4.0 | 0.00 | 0.00 | 0.00 | 41 | 1015.4 |
| 20260507231138 | 65 | 230 | 3.0 | 8.0 | 0.00 | 0.00 | 0.00 | 39 | 1015.3 |
| 20260507230634 | 66 | 242 | 4.0 | 7.0 | 0.00 | 0.00 | 0.00 | 39 | 1015.6 |
| 20260507230132 | 66 | 257 | 8.0 | 10.0 | 0.00 | 0.00 | 0.00 | 38 | 1015.8 |
| 20260507225631 | 68 | 266 | 4.0 | 8.0 | 0.00 | 0.00 | 0.00 | 39 | 1015.7 |
| 20260507225128 | 69 | 168 | 2.0 | 5.0 | 0.00 | 0.00 | 0.00 | 38 | 1015.7 |
| 20260507224624 | 68 | 221 | 2.0 | 6.0 | 0.00 | 0.00 | 0.00 | 37 | 1015.6 |
| 20260507224121 | 67 | 250 | 5.0 | 8.0 | 0.00 | 0.00 | 0.00 | 36 | 1015.8 |
| 20260507223617 | 68 | 244 | 4.0 | 7.0 | 0.00 | 0.00 | 0.00 | 38 | 1015.6 |
| 20260507223114 | 68 | 210 | 2.0 | 6.0 | 0.00 | 0.00 | 0.00 | 36 | 1015.6 |
| 20260507222611 | 67 | 200 | 6.0 | 7.0 | 0.00 | 0.00 | 0.00 | 37 | 1015.6 |
| 20260507222107 | 67 | 237 | 7.0 | 9.0 | 0.00 | 0.00 | 0.00 | 36 | 1015.8 |
| 20260507221603 | 67 | 249 | 5.0 | 12.0 | 0.00 | 0.00 | 0.00 | 36 | 1015.7 |
| 20260507221100 | 68 | 151 | 4.0 | 4.0 | 0.00 | 0.00 | 0.00 | 35 | 1015.8 |
| 20260507220558 | 69 | 242 | 8.0 | 9.0 | 0.00 | 0.00 | 0.00 | 35 | 1015.8 |
| 20260507220055 | 68 | 231 | 7.0 | 10.0 | 0.00 | 0.00 | 0.00 | 35 | 1015.7 |
| 20260507215551 | 68 | 338 | 5.0 | 11.0 | 0.00 | 0.00 | 0.00 | 36 | 1015.8 |
| 20260507215049 | 68 | 283 | 2.0 | 6.0 | 0.00 | 0.00 | 0.00 | 35 | 1015.9 |
| 20260507214546 | 68 | 198 | 2.0 | 4.0 | 0.00 | 0.00 | 0.00 | 36 | 1015.7 |
| 20260507214042 | 68 | 214 | 4.0 | 10.0 | 0.00 | 0.00 | 0.00 | 36 | 1015.7 |
| 20260507213538 | 68 | 246 | 3.0 | 8.0 | 0.00 | 0.00 | 0.00 | 36 | 1015.8 |
| 20260507213036 | 69 | 227 | 3.0 | 5.0 | 0.00 | 0.00 | 0.00 | 34 | 1016.0 |
| 20260507212531 | 68 | 164 | 3.0 | 6.0 | 0.00 | 0.00 | 0.00 | 33 | 1016.2 |
| 20260507212028 | 66 | 253 | 4.0 | 6.0 | 0.00 | 0.00 | 0.00 | 35 | 1016.2 |
| 20260507211525 | 64 | 248 | 0.0 | 6.0 | 0.00 | 0.00 | 0.00 | 37 | 1016.4 |
| 20260507211021 | 68 | 250 | 8.0 | 8.0 | 0.00 | 0.00 | 0.00 | 35 | 1016.4 |
| 20260507210519 | 69 | 200 | 2.0 | 4.0 | 0.00 | 0.00 | 0.00 | 35 | 1016.1 |
| 20260507210015 | 67 | 162 | 2.0 | 11.0 | 0.00 | 0.00 | 0.00 | 37 | 1016.1 |
| 20260507205512 | 67 | 252 | 11.0 | 14.0 | 0.00 | 0.00 | 0.00 | 34 | 1016.4 |
| 20260507205008 | 66 | 241 | 10.0 | 16.0 | 0.00 | 0.00 | 0.00 | 35 | 1016.4 |
| 20260507204505 | 69 | 268 | 3.0 | 3.0 | 0.00 | 0.00 | 0.00 | 35 | 1016.2 |
| 20260507204003 | 65 | 217 | 1.0 | 14.0 | 0.00 | 0.00 | 0.00 | 36 | 1016.6 |
| 20260507203500 | 67 | 246 | 7.0 | 11.0 | 0.00 | 0.00 | 0.00 | 35 | 1016.5 |
| 20260507202956 | 65 | 239 | 5.0 | 11.0 | 0.00 | 0.00 | 0.00 | 36 | 1016.6 |
| 20260507202453 | 68 | 332 | 0.0 | 6.0 | 0.00 | 0.00 | 0.00 | 34 | 1016.5 |
| 20260507201949 | 67 | 245 | 9.0 | 10.0 | 0.00 | 0.00 | 0.00 | 35 | 1016.7 |
| 20260507201449 | 67 | 137 | 2.0 | 3.0 | 0.00 | 0.00 | 0.00 | 33 | 1016.7 |
| 20260507200947 | 66 | 289 | 3.0 | 8.0 | 0.00 | 0.00 | 0.00 | 36 | 1017.0 |
| 20260507200442 | 68 | 241 | 5.0 | 6.0 | 0.00 | 0.00 | 0.00 | 35 | 1017.2 |
| 20260507195938 | 66 | 145 | 6.0 | 10.0 | 0.00 | 0.00 | 0.00 | 34 | 1016.9 |
| 20260507195436 | 66 | 85 | 3.0 | 10.0 | 0.00 | 0.00 | 0.00 | 36 | 1017.0 |
| 20260507194933 | 67 | 253 | 3.0 | 10.0 | 0.00 | 0.00 | 0.00 | 35 | 1017.0 |
| 20260507194429 | 64 | 217 | 1.0 | 13.0 | 0.00 | 0.00 | 0.00 | 38 | 1017.1 |
| 20260507193925 | 65 | 0 | 3.0 | 14.0 | 0.00 | 0.00 | 0.00 | 34 | 1017.4 |
| 20260507193423 | 68 | 212 | 1.0 | 4.0 | 0.00 | 0.00 | 0.00 | 34 | 1017.1 |
| 20260507192919 | 67 | 122 | 2.0 | 8.0 | 0.00 | 0.00 | 0.00 | 35 | 1017.2 |
| 20260507192415 | 65 | 256 | 4.0 | 14.0 | 0.00 | 0.00 | 0.00 | 36 | 1017.4 |
| 20260507191913 | 67 | 347 | 1.0 | 5.0 | 0.00 | 0.00 | 0.00 | 34 | 1017.2 |
| 20260507191409 | 65 | 130 | 0.0 | 3.0 | 0.00 | 0.00 | 0.00 | 35 | 1017.5 |
| 20260507190905 | 63 | 222 | 3.0 | 15.0 | 0.00 | 0.00 | 0.00 | 37 | 1017.6 |
| 20260507190403 | 65 | 271 | 5.0 | 9.0 | 0.00 | 0.00 | 0.00 | 38 | 1017.3 |
| 20260507185902 | 65 | 256 | 8.0 | 11.0 | 0.00 | 0.00 | 0.00 | 37 | 1017.6 |
| 20260507185359 | 66 | 243 | 4.0 | 6.0 | 0.00 | 0.00 | 0.00 | 34 | 1017.7 |
| 20260507184855 | 66 | 257 | 1.0 | 5.0 | 0.00 | 0.00 | 0.00 | 35 | 1017.7 |
| 20260507184353 | 65 | 241 | 3.0 | 7.0 | 0.00 | 0.00 | 0.00 | 36 | 1017.7 |
| 20260507183850 | 64 | 240 | 6.0 | 12.0 | 0.00 | 0.00 | 0.00 | 36 | 1017.7 |
| 20260507183347 | 64 | 251 | 11.0 | 17.0 | 0.00 | 0.00 | 0.00 | 34 | 1017.7 |
| 20260507182845 | 64 | 235 | 12.0 | 13.0 | 0.00 | 0.00 | 0.00 | 34 | 1017.7 |
| 20260507182340 | 64 | 132 | 5.0 | 7.0 | 0.00 | 0.00 | 0.00 | 35 | 1017.8 |
| 20260507181837 | 64 | 238 | 2.0 | 6.0 | 0.00 | 0.00 | 0.00 | 35 | 1017.9 |
| 20260507181333 | 65 | 291 | 3.0 | 7.0 | 0.00 | 0.00 | 0.00 | 35 | 1017.8 |
| 20260507180830 | 65 | 253 | 3.0 | 6.0 | 0.00 | 0.00 | 0.00 | 38 | 1017.9 |
| 20260507180327 | 65 | 335 | 0.0 | 2.0 | 0.00 | 0.00 | 0.00 | 35 | 1018.2 |
| 20260507175822 | 63 | 55 | 2.0 | 8.0 | 0.00 | 0.00 | 0.00 | 37 | 1018.1 |
| 20260507175320 | 62 | 245 | 4.0 | 9.0 | 0.00 | 0.00 | 0.00 | 37 | 1018.1 |
| 20260507174817 | 63 | 349 | 5.0 | 9.0 | 0.00 | 0.00 | 0.00 | 37 | 1018.3 |
| 20260507174314 | 64 | 20 | 3.0 | 4.0 | 0.00 | 0.00 | 0.00 | 37 | 1018.3 |
| 20260507173812 | 62 | 293 | 4.0 | 5.0 | 0.00 | 0.00 | 0.00 | 38 | 1018.5 |
| 20260507173309 | 64 | 246 | 10.0 | 11.0 | 0.00 | 0.00 | 0.00 | 35 | 1018.5 |
| 20260507172805 | 62 | 273 | 6.0 | 10.0 | 0.00 | 0.00 | 0.00 | 35 | 1018.6 |
| 20260507172306 | 63 | 82 | 2.0 | 6.0 | 0.00 | 0.00 | 0.00 | 36 | 1018.4 |
| 20260507171757 | 62 | 265 | 2.0 | 8.0 | 0.00 | 0.00 | 0.00 | 37 | 1018.7 |
| 20260507171255 | 62 | 261 | 7.0 | 10.0 | 0.00 | 0.00 | 0.00 | 38 | 1018.4 |
| 20260507170751 | 62 | 264 | 6.0 | 9.0 | 0.00 | 0.00 | 0.00 | 38 | 1018.7 |
| 20260507170248 | 61 | 25 | 2.0 | 11.0 | 0.00 | 0.00 | 0.00 | 35 | 1018.9 |
| 20260507165744 | 61 | 256 | 2.0 | 9.0 | 0.00 | 0.00 | 0.00 | 38 | 1018.9 |
| 20260507165240 | 62 | 106 | 1.0 | 6.0 | 0.00 | 0.00 | 0.00 | 37 | 1019.1 |
| 20260507164736 | 61 | 239 | 7.0 | 9.0 | 0.00 | 0.00 | 0.00 | 37 | 1019.3 |
| 20260507164234 | 62 | 225 | 5.0 | 6.0 | 0.00 | 0.00 | 0.00 | 39 | 1019.4 |
| 20260507163731 | 61 | 173 | 2.0 | 4.0 | 0.00 | 0.00 | 0.00 | 39 | 1019.1 |
| 20260507163229 | 60 | 210 | 6.0 | 11.0 | 0.00 | 0.00 | 0.00 | 38 | 1019.6 |
| 20260507162724 | 60 | 257 | 5.0 | 9.0 | 0.00 | 0.00 | 0.00 | 38 | 1019.5 |
| 20260507162220 | 61 | 283 | 2.0 | 4.0 | 0.00 | 0.00 | 0.00 | 40 | 1019.5 |
| 20260507161717 | 61 | 339 | 3.0 | 8.0 | 0.00 | 0.00 | 0.00 | 39 | 1019.5 |
| 20260507161214 | 62 | 6 | 3.0 | 3.0 | 0.00 | 0.00 | 0.00 | 42 | 1019.4 |
| 20260507160709 | 60 | 188 | 2.0 | 4.0 | 0.00 | 0.00 | 0.00 | 42 | 1019.5 |
| 20260507160206 | 59 | 38 | 2.0 | 5.0 | 0.00 | 0.00 | 0.00 | 41 | 1019.5 |
| 20260507155702 | 61 | 238 | 5.0 | 8.0 | 0.00 | 0.00 | 0.00 | 45 | 1019.6 |
| 20260507155158 | 61 | 145 | 3.0 | 4.0 | 0.00 | 0.00 | 0.00 | 43 | 1019.6 |
| 20260507154655 | 60 | 190 | 2.0 | 2.0 | 0.00 | 0.00 | 0.00 | 41 | 1019.5 |
| 20260507154153 | 59 | 355 | 3.0 | 3.0 | 0.00 | 0.00 | 0.00 | 41 | 1019.6 |
| 20260507153649 | 58 | 332 | 2.0 | 9.0 | 0.00 | 0.00 | 0.00 | 40 | 1019.7 |
| 20260507153146 | 60 | 330 | 2.0 | 5.0 | 0.00 | 0.00 | 0.00 | 42 | 1019.6 |
| 20260507152642 | 57 | 256 | 2.0 | 7.0 | 0.00 | 0.00 | 0.00 | 45 | 1019.8 |
| 20260507152138 | 57 | 291 | 2.0 | 5.0 | 0.00 | 0.00 | 0.00 | 46 | 1019.8 |
| 20260507151634 | 58 | 232 | 3.0 | 6.0 | 0.00 | 0.00 | 0.00 | 50 | 1019.8 |
| 20260507151131 | 57 | 105 | 2.0 | 3.0 | 0.00 | 0.00 | 0.00 | 49 | 1019.7 |
| 20260507150628 | 57 | 201 | 4.0 | 6.0 | 0.00 | 0.00 | 0.00 | 50 | 1019.8 |
| 20260507150125 | 56 | 250 | 3.0 | 7.0 | 0.00 | 0.00 | 0.00 | 51 | 1020.0 |
| 20260507145626 | 57 | 238 | 5.0 | 5.0 | 0.00 | 0.00 | 0.00 | 50 | 1020.0 |
| 20260507145124 | 58 | 163 | 3.0 | 3.0 | 0.00 | 0.00 | 0.00 | 52 | 1020.0 |
| 20260507144619 | 57 | 116 | 4.0 | 4.0 | 0.00 | 0.00 | 0.00 | 52 | 1020.0 |
| 20260507144118 | 56 | 110 | 2.0 | 4.0 | 0.00 | 0.00 | 0.00 | 53 | 1020.0 |
| 20260507143614 | 57 | 135 | 1.0 | 6.0 | 0.00 | 0.00 | 0.00 | 52 | 1020.1 |
| 20260507143112 | 57 | 139 | 0.0 | 4.0 | 0.00 | 0.00 | 0.00 | 53 | 1020.1 |
| 20260507142607 | 56 | 160 | 2.0 | 2.0 | 0.00 | 0.00 | 0.00 | 59 | 1020.1 |
| 20260507142104 | 53 | 218 | 2.0 | 4.0 | 0.00 | 0.00 | 0.00 | 58 | 1020.1 |
| 20260507141600 | 54 | 266 | 2.0 | 5.0 | 0.00 | 0.00 | 0.00 | 60 | 1020.3 |
| 20260507141057 | 55 | 132 | 2.0 | 4.0 | 0.00 | 0.00 | 0.00 | 61 | 1020.2 |
| 20260507140554 | 54 | 133 | 3.0 | 3.0 | 0.00 | 0.00 | 0.00 | 65 | 1020.3 |
| 20260507140051 | 55 | 129 | 3.0 | 4.0 | 0.00 | 0.00 | 0.00 | 63 | 1020.0 |
| 20260507135548 | 54 | 124 | 1.0 | 4.0 | 0.00 | 0.00 | 0.00 | 64 | 1020.0 |
| 20260507135045 | 53 | 53 | 0.0 | 2.0 | 0.00 | 0.00 | 0.00 | 69 | 1020.2 |
| 20260507134542 | 52 | 89 | 0.0 | 1.0 | 0.00 | 0.00 | 0.00 | 72 | 1020.2 |
| 20260507134037 | 50 | 63 | 0.0 | 2.0 | 0.00 | 0.00 | 0.00 | 76 | 1020.0 |
| 20260507133534 | 50 | 359 | 2.0 | 3.0 | 0.00 | 0.00 | 0.00 | 75 | 1020.1 |
| 20260507133032 | 48 | 335 | 0.0 | 2.0 | 0.00 | 0.00 | 0.00 | 80 | 1020.1 |
| 20260507132528 | 47 | 4 | 1.0 | 2.0 | 0.00 | 0.00 | 0.00 | 81 | 1020.0 |
| 20260507132025 | 47 | 359 | 0.0 | 2.0 | 0.00 | 0.00 | 0.00 | 81 | 1020.0 |
| 20260507131522 | 46 | 53 | 0.0 | 1.0 | 0.00 | 0.00 | 0.00 | 82 | 1019.9 |
| 20260507131019 | 46 | 216 | 0.0 | 2.0 | 0.00 | 0.00 | 0.00 | 83 | 1019.7 |
| 20260507130516 | 45 | 262 | 0.0 | 3.0 | 0.00 | 0.00 | 0.00 | 82 | 1020.0 |
| 20260507130014 | 44 | 234 | 2.0 | 3.0 | 0.00 | 0.00 | 0.00 | 83 | 1020.0 |
| 20260507125512 | 44 | 93 | 0.0 | 1.0 | 0.00 | 0.00 | 0.00 | 87 | 1020.0 |
| 20260507125011 | 42 | 28 | 0.0 | 2.0 | 0.00 | 0.00 | 0.00 | 89 | 1020.1 |
| 20260507124506 | 40 | 346 | 1.0 | 1.0 | 0.00 | 0.00 | 0.00 | 91 | 1019.8 |
| 20260507124003 | 40 | 242 | 2.0 | 2.0 | 0.00 | 0.00 | 0.00 | 94 | 1019.9 |
| 20260507123501 | 39 | 242 | 2.0 | 2.0 | 0.00 | 0.00 | 0.00 | 96 | 1019.9 |
| 20260507122957 | 38 | 327 | 0.0 | 2.0 | 0.00 | 0.00 | 0.00 | 96 | 1019.7 |
| 20260507122453 | 38 | 336 | 0.0 | 3.0 | 0.00 | 0.00 | 0.00 | 97 | 1019.8 |
| 20260507121949 | 38 | 63 | 0.0 | 1.0 | 0.00 | 0.00 | 0.00 | 97 | 1019.7 |
| 20260507121444 | 38 | 98 | 0.0 | 2.0 | 0.00 | 0.00 | 0.00 | 97 | 1019.8 |
| 20260507120941 | 37 | 235 | 0.0 | 2.0 | 0.00 | 0.00 | 0.00 | 98 | 1019.8 |
| 20260507120437 | 37 | 25 | 0.0 | 2.0 | 0.00 | 0.00 | 0.00 | 98 | 1019.6 |
| 20260507115934 | 37 | 353 | 0.0 | 2.0 | 0.00 | 0.00 | 0.00 | 98 | 1019.6 |
| 20260507115430 | 37 | 329 | 0.0 | 2.0 | 0.00 | 0.00 | 0.00 | 98 | 1019.5 |
| 20260507114926 | 37 | 289 | 0.0 | 2.0 | 0.00 | 0.00 | 0.00 | 98 | 1019.5 |
| 20260507114423 | 37 | 74 | 0.0 | 2.0 | 0.00 | 0.00 | 0.00 | 98 | 1019.4 |
| 20260507113920 | 36 | 74 | 1.0 | 2.0 | 0.00 | 0.00 | 0.00 | 98 | 1019.3 |
| 20260507113417 | 36 | 34 | 0.0 | 2.0 | 0.00 | 0.00 | 0.00 | 98 | 1019.5 |
| 20260507112914 | 36 | 208 | 0.0 | 1.0 | 0.00 | 0.00 | 0.00 | 98 | 1019.4 |
| 20260507112412 | 36 | 266 | 2.0 | 2.0 | 0.00 | 0.00 | 0.00 | 98 | 1019.4 |
| 20260507111909 | 35 | 37 | 1.0 | 2.0 | 0.00 | 0.00 | 0.00 | 98 | 1019.5 |
| 20260507111406 | 35 | 126 | 1.0 | 1.0 | 0.00 | 0.00 | 0.00 | 98 | 1019.1 |
| 20260507110902 | 35 | 310 | 0.0 | 2.0 | 0.00 | 0.00 | 0.00 | 98 | 1019.0 |
| 20260507110358 | 36 | 2 | 2.0 | 2.0 | 0.00 | 0.00 | 0.00 | 98 | 1019.3 |
| 20260507105855 | 36 | 257 | 0.0 | 2.0 | 0.00 | 0.00 | 0.00 | 98 | 1018.9 |
| 20260507105352 | 35 | 50 | 0.0 | 2.0 | 0.00 | 0.00 | 0.00 | 98 | 1018.9 |
| 20260507104848 | 35 | 312 | 0.0 | 2.0 | 0.00 | 0.00 | 0.00 | 98 | 1018.9 |
| 20260507104345 | 35 | 198 | 0.0 | 2.0 | 0.00 | 0.00 | 0.00 | 98 | 1019.0 |
| 20260507103841 | 35 | 119 | 0.0 | 2.0 | 0.00 | 0.00 | 0.00 | 98 | 1019.0 |
| 20260507103338 | 35 | 201 | 0.0 | 2.0 | 0.00 | 0.00 | 0.00 | 98 | 1018.8 |
| 20260507102834 | 35 | 142 | 0.0 | 1.0 | 0.00 | 0.00 | 0.00 | 98 | 1018.9 |
| 20260507102331 | 35 | 217 | 0.0 | 2.0 | 0.00 | 0.00 | 0.00 | 98 | 1018.9 |
| 20260507101827 | 35 | 60 | 1.0 | 3.0 | 0.00 | 0.00 | 0.00 | 98 | 1019.0 |
| 20260507101327 | 34 | 139 | 2.0 | 2.0 | 0.00 | 0.00 | 0.00 | 97 | 1018.6 |
| 20260507100825 | 34 | 212 | 1.0 | 2.0 | 0.00 | 0.00 | 0.00 | 97 | 1018.9 |
| 20260507100323 | 35 | 326 | 0.0 | 2.0 | 0.00 | 0.00 | 0.00 | 97 | 1018.8 |
| 20260507095821 | 35 | 223 | 2.0 | 3.0 | 0.00 | 0.00 | 0.00 | 97 | 1019.0 |
| 20260507095317 | 35 | 253 | 1.0 | 4.0 | 0.00 | 0.00 | 0.00 | 97 | 1018.9 |
| 20260507094814 | 36 | 309 | 1.0 | 3.0 | 0.00 | 0.00 | 0.00 | 97 | 1018.8 |
| 20260507094311 | 37 | 98 | 0.0 | 3.0 | 0.00 | 0.00 | 0.00 | 97 | 1018.7 |
| 20260507093808 | 37 | 180 | 0.0 | 2.0 | 0.00 | 0.00 | 0.00 | 97 | 1018.6 |
| 20260507093306 | 37 | 121 | 1.0 | 2.0 | 0.00 | 0.00 | 0.00 | 97 | 1018.7 |
| 20260507092804 | 37 | 123 | 1.0 | 3.0 | 0.00 | 0.00 | 0.00 | 97 | 1018.6 |
| 20260507092300 | 37 | 180 | 0.0 | 2.0 | 0.00 | 0.00 | 0.00 | 97 | 1018.7 |
| 20260507091756 | 37 | 42 | 2.0 | 3.0 | 0.00 | 0.00 | 0.00 | 97 | 1018.8 |
| 20260507091253 | 37 | 202 | 1.0 | 2.0 | 0.00 | 0.00 | 0.00 | 97 | 1018.8 |
| 20260507090753 | 37 | 144 | 0.0 | 2.0 | 0.00 | 0.00 | 0.00 | 97 | 1019.1 |
| 20260507090250 | 37 | 15 | 0.0 | 0.0 | 0.00 | 0.00 | 0.00 | 97 | 1018.9 |
| 20260507085747 | 37 | 128 | 1.0 | 2.0 | 0.00 | 0.00 | 0.00 | 97 | 1018.8 |
| 20260507085244 | 37 | 138 | 2.0 | 2.0 | 0.00 | 0.00 | 0.00 | 97 | 1018.9 |
| 20260507084741 | 37 | 107 | 1.0 | 2.0 | 0.00 | 0.00 | 0.00 | 96 | 1019.1 |
| 20260507084237 | 37 | 147 | 0.0 | 0.0 | 0.00 | 0.00 | 0.00 | 96 | 1019.3 |
| 20260507083735 | 37 | 214 | 0.0 | 0.0 | 0.00 | 0.00 | 0.00 | 96 | 1019.1 |
| 20260507083231 | 37 | 228 | 0.0 | 1.0 | 0.00 | 0.00 | 0.00 | 96 | 1019.1 |
| 20260507082728 | 37 | 168 | 0.0 | 0.0 | 0.00 | 0.00 | 0.00 | 96 | 1019.3 |
| 20260507082223 | 38 | 209 | 0.0 | 0.0 | 0.00 | 0.00 | 0.00 | 96 | 1019.3 |
| 20260507081721 | 37 | 19 | 0.0 | 0.0 | 0.00 | 0.00 | 0.00 | 96 | 1019.3 |
| 20260507081217 | 38 | 123 | 0.0 | 1.0 | 0.00 | 0.00 | 0.00 | 96 | 1019.3 |
| 20260507080713 | 38 | 321 | 0.0 | 0.0 | 0.00 | 0.00 | 0.00 | 95 | 1019.5 |
| 20260507080210 | 38 | 60 | 0.0 | 1.0 | 0.00 | 0.00 | 0.00 | 95 | 1019.5 |
| 20260507075705 | 38 | 339 | 0.0 | 0.0 | 0.00 | 0.00 | 0.00 | 95 | 1019.4 |
| 20260507075201 | 38 | 309 | 1.0 | 2.0 | 0.00 | 0.00 | 0.00 | 94 | 1019.3 |
| 20260507074658 | 38 | 320 | 1.0 | 2.0 | 0.00 | 0.00 | 0.00 | 94 | 1019.3 |
| 20260507074156 | 38 | 229 | 0.0 | 0.0 | 0.00 | 0.00 | 0.00 | 93 | 1019.1 |
| 20260507073653 | 38 | 326 | 0.0 | 1.0 | 0.00 | 0.00 | 0.00 | 93 | 1019.3 |
| 20260507073149 | 39 | 13 | 0.0 | 0.0 | 0.00 | 0.00 | 0.00 | 92 | 1019.1 |
| 20260507072647 | 39 | 237 | 0.0 | 0.0 | 0.00 | 0.00 | 0.00 | 92 | 1019.1 |
| 20260507072144 | 40 | 248 | 0.0 | 2.0 | 0.00 | 0.00 | 0.00 | 91 | 1019.0 |
| 20260507071642 | 41 | 231 | 0.0 | 2.0 | 0.00 | 0.00 | 0.00 | 89 | 1018.9 |
| 20260507071137 | 42 | 119 | 0.0 | 2.0 | 0.00 | 0.00 | 0.00 | 85 | 1018.9 |
| 20260507070635 | 42 | 181 | 0.0 | 2.0 | 0.00 | 0.00 | 0.00 | 81 | 1018.7 |
| 20260507070132 | 42 | 249 | 1.0 | 2.0 | 0.00 | 0.00 | 0.00 | 81 | 1018.8 |
| 20260507065628 | 42 | 14 | 0.0 | 2.0 | 0.00 | 0.00 | 0.00 | 84 | 1018.9 |
| 20260507065125 | 42 | 91 | 0.0 | 2.0 | 0.00 | 0.00 | 0.00 | 84 | 1018.9 |